| time (UTC) | temp C | wind direction | speed KPH | gust KPH | rain 1hr cm | rain 24hr cm | rain mn cm | humidity % | barometer mb |
| 20260510183551 | 19 | 179 | 3.2 | 9.7 | 0.00 | 0.00 | 0.00 | 74 | 1014.4 |
| 20260510182548 | 19 | 106 | 3.2 | 6.4 | 0.00 | 0.00 | 0.00 | 73 | 1014.5 |
| 20260510181546 | 20 | 154 | 3.2 | 6.4 | 0.00 | 0.00 | 0.00 | 71 | 1014.5 |
| 20260510180543 | 20 | 122 | 3.2 | 9.7 | 0.00 | 0.00 | 0.00 | 71 | 1014.5 |
| 20260510175540 | 20 | 172 | 4.8 | 9.7 | 0.00 | 0.00 | 0.00 | 69 | 1014.4 |
| 20260510174537 | 21 | 176 | 3.2 | 9.7 | 0.00 | 0.00 | 0.00 | 67 | 1014.3 |
| 20260510173535 | 22 | 179 | 3.2 | 9.7 | 0.00 | 0.00 | 0.00 | 65 | 1014.5 |
| 20260510172532 | 21 | 172 | 4.8 | 11.3 | 0.00 | 0.00 | 0.00 | 66 | 1014.3 |
| 20260510171530 | 22 | 174 | 4.8 | 11.3 | 0.00 | 0.00 | 0.00 | 66 | 1014.3 |
| 20260510170527 | 22 | 157 | 4.8 | 11.3 | 0.00 | 0.00 | 0.00 | 66 | 1014.1 |
| 20260510165524 | 22 | 201 | 4.8 | 12.9 | 0.00 | 0.00 | 0.00 | 64 | 1014.3 |
| 20260510164522 | 23 | 169 | 4.8 | 9.7 | 0.00 | 0.00 | 0.00 | 63 | 1014.4 |
| 20260510163519 | 22 | 157 | 4.8 | 11.3 | 0.00 | 0.00 | 0.00 | 64 | 1014.4 |
| 20260510162517 | 23 | 211 | 3.2 | 6.4 | 0.00 | 0.00 | 0.00 | 63 | 1014.6 |
| 20260510161634 | 23 | 173 | 4.8 | 11.3 | 0.00 | 0.00 | 0.00 | 62 | 1014.4 |
| 20260510160612 | 23 | 220 | 4.8 | 11.3 | 0.00 | 0.00 | 0.00 | 63 | 1014.5 |
| 20260510155609 | 23 | 207 | 4.8 | 9.7 | 0.00 | 0.00 | 0.00 | 63 | 1014.5 |
| 20260510154607 | 23 | 201 | 3.2 | 11.3 | 0.00 | 0.00 | 0.00 | 65 | 1014.6 |
| 20260510153644 | 22 | 229 | 6.4 | 12.9 | 0.00 | 0.00 | 0.00 | 66 | 1014.8 |
| 20260510152601 | 22 | 187 | 3.2 | 9.7 | 0.00 | 0.00 | 0.00 | 68 | 1014.8 |
| 20260510151559 | 23 | 264 | 4.8 | 17.7 | 0.00 | 0.00 | 0.00 | 65 | 1014.8 |
| 20260510150556 | 23 | 163 | 4.8 | 14.5 | 0.00 | 0.00 | 0.00 | 66 | 1014.7 |
| 20260510145554 | 23 | 149 | 4.8 | 11.3 | 0.00 | 0.00 | 0.00 | 67 | 1014.9 |
| 20260510144611 | 24 | 183 | 1.6 | 6.4 | 0.00 | 0.00 | 0.00 | 64 | 1015.0 |
| 20260510143548 | 23 | 198 | 3.2 | 9.7 | 0.00 | 0.00 | 0.00 | 66 | 1015.0 |
| 20260510142546 | 23 | 235 | 3.2 | 6.4 | 0.00 | 0.00 | 0.00 | 66 | 1015.0 |
| 20260510141543 | 24 | 210 | 3.2 | 6.4 | 0.00 | 0.00 | 0.00 | 63 | 1015.2 |
| 20260510135546 | 24 | 179 | 3.2 | 6.4 | 0.00 | 0.00 | 0.00 | 64 | 1015.5 |
| 20260510134535 | 23 | 266 | 3.2 | 6.4 | 0.00 | 0.00 | 0.00 | 65 | 1015.6 |
| 20260510133533 | 24 | 163 | 3.2 | 6.4 | 0.00 | 0.00 | 0.00 | 63 | 1015.6 |
| 20260510132532 | 23 | 136 | 3.2 | 9.7 | 0.00 | 0.00 | 0.00 | 64 | 1015.8 |
| 20260510131527 | 23 | 206 | 3.2 | 9.7 | 0.00 | 0.00 | 0.00 | 62 | 1015.9 |
| 20260510130536 | 23 | 226 | 4.8 | 11.3 | 0.00 | 0.00 | 0.00 | 64 | 1016.0 |
| 20260510125602 | 22 | 227 | 3.2 | 11.3 | 0.00 | 0.00 | 0.00 | 63 | 1016.0 |
| 20260510124520 | 22 | 191 | 3.2 | 6.4 | 0.00 | 0.00 | 0.00 | 62 | 1016.2 |
| 20260510123517 | 22 | 177 | 4.8 | 11.3 | 0.00 | 0.00 | 0.00 | 66 | 1016.3 |
| 20260510122534 | 22 | 187 | 4.8 | 12.9 | 0.00 | 0.03 | 0.00 | 64 | 1016.3 |
| 20260510121612 | 22 | 180 | 4.8 | 11.3 | 0.00 | 0.03 | 0.00 | 63 | 1016.3 |
| 20260510120609 | 22 | 156 | 6.4 | 12.9 | 0.00 | 0.05 | 0.00 | 63 | 1016.5 |
| 20260510115607 | 22 | 158 | 4.8 | 12.9 | 0.00 | 0.10 | 0.00 | 64 | 1016.5 |
| 20260510114645 | 22 | 170 | 4.8 | 9.7 | 0.00 | 0.13 | 0.00 | 67 | 1016.5 |
| 20260510113601 | 23 | 175 | 4.8 | 9.7 | 0.00 | 0.13 | 0.00 | 66 | 1016.5 |
| 20260510112559 | 23 | 214 | 4.8 | 11.3 | 0.00 | 0.15 | 0.00 | 63 | 1016.4 |
| 20260510111556 | 23 | 171 | 4.8 | 11.3 | 0.00 | 0.18 | 0.00 | 60 | 1016.5 |
| 20260510110554 | 23 | 204 | 4.8 | 12.9 | 0.00 | 0.23 | 0.00 | 59 | 1016.4 |
| 20260510105551 | 23 | 257 | 4.8 | 11.3 | 0.00 | 0.28 | 0.00 | 55 | 1016.5 |
| 20260510104548 | 22 | 269 | 1.6 | 6.4 | 0.00 | 0.33 | 0.00 | 53 | 1016.5 |
| 20260510103546 | 23 | 236 | 1.6 | 6.4 | 0.00 | 0.38 | 0.00 | 53 | 1016.6 |
| 20260510102543 | 22 | 255 | 1.6 | 3.2 | 0.00 | 0.48 | 0.00 | 55 | 1016.7 |
| 20260510101621 | 22 | 244 | 3.2 | 9.7 | 0.00 | 0.56 | 0.00 | 53 | 1016.7 |
| 20260510100538 | 22 | 221 | 0.0 | 3.2 | 0.00 | 0.66 | 0.00 | 55 | 1016.9 |
| 20260510095536 | 22 | 246 | 3.2 | 6.4 | 0.00 | 0.89 | 0.00 | 57 | 1017.2 |
| 20260510094533 | 21 | 220 | 1.6 | 6.4 | 0.00 | 1.02 | 0.00 | 58 | 1017.3 |
| 20260510093530 | 22 | 175 | 1.6 | 6.4 | 0.00 | 1.09 | 0.00 | 60 | 1017.2 |
| 20260510092528 | 21 | 246 | 1.6 | 6.4 | 0.00 | 1.14 | 0.00 | 58 | 1017.1 |
| 20260510091525 | 21 | 175 | 1.6 | 6.4 | 0.00 | 1.30 | 0.00 | 60 | 1017.0 |
| 20260510090523 | 21 | 171 | 1.6 | 6.4 | 0.00 | 1.42 | 0.00 | 60 | 1017.0 |
| 20260510085525 | 21 | 198 | 1.6 | 3.2 | 0.00 | 1.63 | 0.00 | 62 | 1017.0 |
| 20260510084537 | 20 | 255 | 0.0 | 6.4 | 0.00 | 1.70 | 0.00 | 63 | 1017.1 |
| 20260510083515 | 20 | 260 | 1.6 | 3.2 | 0.00 | 1.75 | 0.00 | 65 | 1017.1 |
| 20260510082613 | 20 | 0.0 | 3.2 | 0.00 | 1.75 | 0.00 | 65 | 1017.1 | |
| 20260510081610 | 19 | 180 | 0.0 | 3.2 | 0.00 | 1.75 | 0.00 | 66 | 1017.1 |
| 20260510080607 | 18 | 248 | 0.0 | 6.4 | 0.00 | 1.75 | 0.00 | 68 | 1017.2 |
| 20260510075604 | 18 | 259 | 1.6 | 3.2 | 0.00 | 1.75 | 0.00 | 70 | 1017.1 |
| 20260510074602 | 18 | 294 | 1.6 | 3.2 | 0.00 | 1.75 | 0.00 | 71 | 1017.2 |
| 20260510073559 | 18 | 13 | 1.6 | 3.2 | 0.00 | 1.80 | 0.00 | 71 | 1017.1 |
| 20260510072556 | 17 | 0.0 | 0.0 | 0.00 | 1.88 | 0.00 | 75 | 1017.0 | |
| 20260510071554 | 17 | 0.0 | 0.0 | 0.00 | 2.16 | 0.00 | 79 | 1016.7 | |
| 20260510070551 | 16 | 0.0 | 3.2 | 0.00 | 2.21 | 0.00 | 83 | 1017.2 | |
| 20260510065549 | 15 | 0.0 | 0.0 | 0.00 | 2.21 | 0.00 | 89 | 1017.2 | |
| 20260510064546 | 15 | 0.0 | 0.0 | 0.00 | 2.39 | 0.00 | 90 | 1017.1 | |
| 20260510063543 | 14 | 0.0 | 0.0 | 0.00 | 2.92 | 0.00 | 90 | 1016.9 | |
| 20260510062541 | 14 | 0.0 | 0.0 | 0.00 | 2.97 | 0.00 | 90 | 1016.9 | |
| 20260510061538 | 14 | 0.0 | 0.0 | 0.00 | 2.97 | 0.00 | 91 | 1016.8 | |
| 20260510060536 | 14 | 0 | 0.0 | 6.4 | 0.00 | 3.00 | 0.00 | 92 | 1016.8 |
| 20260510055553 | 13 | 23 | 0.0 | 3.2 | 0.00 | 3.12 | 0.00 | 93 | 1016.7 |
| 20260510054530 | 13 | 20 | 1.6 | 6.4 | 0.00 | 3.25 | 0.00 | 93 | 1016.6 |
| 20260510053528 | 13 | 19 | 3.2 | 6.4 | 0.00 | 3.25 | 0.00 | 93 | 1016.7 |
| 20260510052525 | 13 | 17 | 1.6 | 6.4 | 0.00 | 3.25 | 0.00 | 92 | 1016.6 |
| 20260510051522 | 13 | 15 | 3.2 | 6.4 | 0.00 | 3.25 | 0.00 | 92 | 1016.6 |
| 20260510050520 | 13 | 0.0 | 0.0 | 0.00 | 3.25 | 0.00 | 91 | 1016.5 | |
| 20260510045517 | 13 | 0.0 | 0.0 | 0.00 | 3.25 | 0.00 | 91 | 1016.6 | |
| 20260510044514 | 13 | 0.0 | 0.0 | 0.00 | 3.25 | 0.00 | 91 | 1016.7 | |
| 20260510043612 | 13 | 0.0 | 0.0 | 0.00 | 3.25 | 0.00 | 90 | 1016.6 | |
| 20260510042609 | 13 | 0.0 | 0.0 | 0.00 | 3.25 | 0.00 | 90 | 1016.5 | |
| 20260510041607 | 13 | 0.0 | 0.0 | 0.00 | 3.25 | 0.00 | 91 | 1016.5 | |
| 20260510040624 | 13 | 0.0 | 0.0 | 0.00 | 3.25 | 0.00 | 92 | 1016.4 | |
| 20260510035602 | 13 | 0.0 | 0.0 | 0.00 | 3.25 | 0.00 | 92 | 1016.4 | |
| 20260510034559 | 13 | 135 | 0.0 | 3.2 | 0.00 | 3.25 | 0.00 | 93 | 1016.2 |
| 20260510033557 | 13 | 90 | 0.0 | 3.2 | 0.00 | 3.25 | 0.00 | 93 | 1016.2 |
| 20260510032554 | 13 | 90 | 0.0 | 3.2 | 0.00 | 3.25 | 0.00 | 93 | 1016.1 |
| 20260510031551 | 12 | 0.0 | 0.0 | 0.00 | 3.25 | 0.00 | 93 | 1016.1 | |
| 20260510030549 | 13 | 0.0 | 0.0 | 0.00 | 3.25 | 0.00 | 94 | 1015.9 | |
| 20260510025546 | 13 | 0.0 | 0.0 | 0.00 | 3.25 | 0.00 | 94 | 1015.9 | |
| 20260510024604 | 13 | 0.0 | 0.0 | 0.00 | 3.25 | 0.00 | 94 | 1015.9 | |
| 20260510023601 | 13 | 0.0 | 0.0 | 0.00 | 3.25 | 0.00 | 94 | 1015.8 | |
| 20260510022538 | 13 | 0.0 | 0.0 | 0.00 | 3.25 | 0.00 | 94 | 1015.9 | |
| 20260510021535 | 13 | 0.0 | 0.0 | 0.00 | 3.25 | 0.00 | 94 | 1016.0 | |
| 20260510020633 | 13 | 0.0 | 0.0 | 0.00 | 3.25 | 0.00 | 94 | 1016.0 | |
| 20260510015530 | 12 | 0.0 | 0.0 | 0.00 | 3.25 | 0.00 | 94 | 1015.9 | |
| 20260510014528 | 13 | 0.0 | 0.0 | 0.00 | 3.25 | 0.00 | 95 | 1015.9 | |
| 20260510013525 | 13 | 0.0 | 0.0 | 0.00 | 3.25 | 0.00 | 95 | 1016.0 | |
| 20260510012523 | 13 | 0.0 | 0.0 | 0.00 | 3.25 | 0.00 | 96 | 1016.2 | |
| 20260510011520 | 13 | 0.0 | 0.0 | 0.00 | 3.25 | 0.00 | 96 | 1016.1 | |
| 20260510010517 | 13 | 0.0 | 0.0 | 0.00 | 3.25 | 0.00 | 96 | 1016.0 | |
| 20260510005515 | 13 | 0.0 | 0.0 | 0.00 | 3.25 | 0.00 | 97 | 1016.1 | |
| 20260510004612 | 13 | 0.0 | 0.0 | 0.00 | 3.25 | 0.00 | 97 | 1016.3 | |
| 20260510003609 | 13 | 0.0 | 0.0 | 0.00 | 3.25 | 0.00 | 97 | 1016.4 | |
| 20260510002607 | 13 | 0.0 | 0.0 | 0.00 | 3.25 | 0.00 | 97 | 1016.4 | |
| 20260510001605 | 13 | 0.0 | 0.0 | 0.00 | 3.25 | 0.00 | 97 | 1016.5 | |
| 20260510000601 | 13 | 0.0 | 0.0 | 0.00 | 3.25 | 0.00 | 97 | 1016.6 | |
| 20260509235559 | 13 | 0.0 | 0.0 | 0.00 | 3.25 | 0.00 | 97 | 1016.8 | |
| 20260509234557 | 13 | 0.0 | 0.0 | 0.00 | 3.25 | 0.00 | 97 | 1016.9 | |
| 20260509233614 | 13 | 0.0 | 0.0 | 0.00 | 3.25 | 0.00 | 97 | 1017.0 | |
| 20260509232551 | 14 | 0.0 | 0.0 | 0.00 | 3.25 | 0.00 | 97 | 1017.1 | |
| 20260509231609 | 14 | 0.0 | 0.0 | 0.00 | 3.25 | 0.00 | 97 | 1017.2 | |
| 20260509230546 | 14 | 0.0 | 0.0 | 0.00 | 3.25 | 0.00 | 97 | 1017.1 | |
| 20260509225544 | 13 | 0.0 | 0.0 | 0.00 | 3.25 | 0.00 | 96 | 1017.4 | |
| 20260509224541 | 14 | 0.0 | 0.0 | 0.00 | 3.25 | 0.00 | 96 | 1017.0 | |
| 20260509223538 | 14 | 0.0 | 0.0 | 0.00 | 3.25 | 0.00 | 96 | 1017.1 | |
| 20260509222535 | 14 | 0.0 | 0.0 | 0.00 | 3.25 | 0.00 | 95 | 1017.1 | |
| 20260509221533 | 14 | 0.0 | 0.0 | 0.00 | 3.25 | 0.00 | 95 | 1017.2 | |
| 20260509220530 | 14 | 0.0 | 0.0 | 0.00 | 3.25 | 0.00 | 95 | 1017.2 | |
| 20260509215548 | 15 | 0.0 | 0.0 | 0.00 | 3.25 | 3.25 | 96 | 1017.2 | |
| 20260509214525 | 14 | 0.0 | 0.0 | 0.00 | 3.25 | 3.25 | 96 | 1017.0 | |
| 20260509213522 | 14 | 0.0 | 0.0 | 0.00 | 3.25 | 3.25 | 95 | 1017.0 | |
| 20260509212520 | 14 | 0.0 | 0.0 | 0.00 | 3.25 | 3.25 | 95 | 1017.0 | |
| 20260509211517 | 15 | 0.0 | 0.0 | 0.00 | 3.25 | 3.25 | 95 | 1017.1 | |
| 20260509210515 | 15 | 0.0 | 0.0 | 0.00 | 3.25 | 3.25 | 94 | 1017.0 | |
| 20260509205612 | 15 | 0.0 | 0.0 | 0.00 | 3.25 | 3.25 | 94 | 1017.2 | |
| 20260509204610 | 15 | 0.0 | 0.0 | 0.00 | 3.25 | 3.25 | 93 | 1017.0 | |
| 20260509203607 | 15 | 0.0 | 0.0 | 0.00 | 3.25 | 3.25 | 93 | 1017.0 | |
| 20260509202604 | 15 | 0.0 | 0.0 | 0.00 | 3.25 | 3.25 | 92 | 1016.9 | |
| 20260509201602 | 15 | 0.0 | 3.2 | 0.00 | 3.25 | 3.25 | 92 | 1016.8 | |
| 20260509200559 | 15 | 113 | 0.0 | 3.2 | 0.00 | 3.25 | 3.25 | 92 | 1016.7 |
| 20260509195556 | 15 | 132 | 1.6 | 3.2 | 0.00 | 3.25 | 3.25 | 91 | 1016.5 |
| 20260509194554 | 15 | 120 | 1.6 | 6.4 | 0.00 | 3.25 | 3.25 | 90 | 1016.3 |
| 20260509193551 | 15 | 103 | 3.2 | 6.4 | 0.00 | 3.25 | 3.25 | 89 | 1016.3 |
| 20260509192549 | 15 | 135 | 0.0 | 3.2 | 0.00 | 3.25 | 3.25 | 88 | 1016.1 |
| 20260509191546 | 15 | 0.0 | 3.2 | 0.00 | 3.25 | 3.25 | 88 | 1016.0 | |
| 20260509190543 | 15 | 0.0 | 0.0 | 0.00 | 3.25 | 3.25 | 89 | 1016.0 | |
| 20260509185541 | 15 | 0.0 | 0.0 | 0.00 | 3.25 | 3.25 | 89 | 1015.8 | |
| 20260509184538 | 15 | 0.0 | 3.2 | 0.00 | 3.25 | 3.25 | 89 | 1015.6 |